This is the latest recevied weather packets stored in our database for station/object KV4OP. If no packets are shown the sender has not sent any weather packets the latest 10 day(s).
| Time | Temp. | Humidity | Pressure | Rain* | Wind** | Luminosity | Snow |
|---|---|---|---|---|---|---|---|
| 1777511159 | 27.22° C | 66% | 1012.7 hPa | 0 mm | - | - | - |
| 1777510859 | 27.78° C | 64% | 1012.6 hPa | 0 mm | - | - | - |
| 1777510559 | 27.78° C | 62% | 1012.4 hPa | 0 mm | - | - | - |
| 1777510259 | 27.78° C | 65% | 1012.1 hPa | 0 mm | - | - | - |
| 1777509959 | 27.78° C | 66% | 1012 hPa | 0 mm | - | - | - |
| 1777509659 | 27.78° C | 67% | 1011.9 hPa | 0 mm | - | - | - |
| 1777509358 | 27.78° C | 66% | 1011.9 hPa | 0 mm | - | - | - |
| 1777509059 | 27.78° C | 66% | 1011.8 hPa | 0 mm | - | - | - |
| 1777508758 | 28.33° C | 67% | 1011.9 hPa | 0 mm | - | - | - |
| 1777508458 | 28.33° C | 63% | 1011.9 hPa | 0 mm | - | - | - |
| 1777508160 | 28.33° C | 62% | 1011.9 hPa | 0 mm | - | - | - |
| 1777507858 | 28.33° C | 62% | 1011.7 hPa | 0 mm | - | - | - |
| 1777507558 | 28.33° C | 64% | 1011.7 hPa | 0 mm | - | - | - |
| 1777507257 | 27.78° C | 65% | 1011.6 hPa | 0 mm | - | - | - |
| 1777506957 | 28.33° C | 64% | 1011.6 hPa | 0 mm | - | - | - |
| 1777506657 | 28.89° C | 60% | 1011.6 hPa | 0 mm | - | - | - |
| 1777506358 | 29.44° C | 59% | 1011.7 hPa | 0 mm | - | - | - |
| 1777506057 | 29.44° C | 57% | 1011.6 hPa | 0 mm | - | - | - |
| 1777505757 | 28.89° C | 59% | 1011.5 hPa | 0 mm | - | - | - |
| 1777505456 | 30° C | 56% | 1011.5 hPa | 0 mm | - | - | - |
| 1777505157 | 30° C | 55% | 1011.5 hPa | 0 mm | - | - | - |
| 1777504856 | 30° C | 57% | 1011.6 hPa | 0 mm | - | - | - |
| 1777504556 | 30° C | 55% | 1011.5 hPa | 0 mm | - | - | - |
| 1777504255 | 30.56° C | 56% | 1011.5 hPa | 0 mm | - | - | - |
| 1777503956 | 30.56° C | 56% | 1011.5 hPa | 0 mm | - | - | - |
* Rain latest hour (hover to see other rain measurements)
** Current wind speed in m/s (hover to see current wind gust speed)